Regional Weather Roundup
Issued by NWS Albany, NY

Home | Current Version | Previous Version | Text Only | Print | Product List | Glossary On
Versions: 1 2 3 4 5 6 7 8 9 10 11 12 13 14 15 16 17 18 19 20 21 22 23 24 25 26 27 28 29 30 31 32 33 34 35 36 37 38 39 40 41 42 43 44 45 46 47 48 49 50
000
ASUS41 KALY 062010
RWRALY

NEW YORK STATE HOURLY WEATHER ROUNDUP
NATIONAL WEATHER SERVICE ALBANY NY
300 PM EST SAT FEB 06 2016

NOTE: "FAIR" INDICATES FEW OR NO CLOUDS BELOW 12,000 FEET WITH NO
SIGNIFICANT WEATHER AND/OR NO OBSTRUCTIONS TO VISIBILITY.

NYZ032-033-038>043-046>054-057>066-NYZ062>081-062100-
EAST


CITY           SKY/WX    TMP DP  RH WIND       PRES   REMARKS
ALBANY         CLOUDY    41  16  36 S15       30.18F
GLENS FALLS    CLOUDY    38  19  46 SW13G20   30.16F WCI  30
POUGHKEEPSIE   MOSUNNY   42  17  36 VRB7      30.24F
NEWBURGH       MOSUNNY   43  19  39 SW9       30.24F
MONTGOMERY     PTSUNNY   42  19  39 SW16      30.22F
WHITE PLAINS   MOSUNNY   38  19  46 S7        30.27F WCI  33
ISLIP          PTSUNNY   36  23  59 SW14      30.31F WCI  27
NEW YORK CITY  PTSUNNY   40  20  44 SW14      30.30F WCI  32
CENTRAL PARK   PTSUNNY   39  18  42 W9G18     30.32F WCI  33
$$

NYZ005>009-017-018-044>046-055-056-062100-
CENTRAL


CITY           SKY/WX    TMP DP  RH WIND       PRES   REMARKS
FULTON         CLOUDY    38  25  59 W9        30.17S WCI  31
SYRACUSE       CLOUDY    37  21  52 W12       30.17S WCI  29
ROME           CLOUDY    38  20  48 SW13G22   30.18S WCI  30
ELMIRA         MOSUNNY   44  19  36 SW13      30.15S
BINGHAMTON     CLOUDY    37  17  44 SW17G23   30.13F WCI  27
MONTICELLO     PTSUNNY   39  16  38 W13G21    30.18F WCI  32
$$

NYZ026>034-041>043-062100-
NORTH


CITY           SKY/WX    TMP DP  RH WIND       PRES   REMARKS
WATERTOWN      CLOUDY    35  27  72 W14G23    30.14S WCI  26
FORT DRUM      NOT AVBL
MASSENA        CLOUDY    34  27  75 SW12G17   30.10S WCI  25
SARANAC LAKE   CLOUDY    29  22  75 SW12G21   30.03F WCI  19
PLATTSBURGH    CLOUDY    38  23  55 VRB7      30.11S WCI  33
$$

NYZ001>004-010>016-019>021-062100-
WEST


CITY           SKY/WX    TMP DP  RH WIND       PRES   REMARKS
NIAGARA FALLS  MOSUNNY   36  23  59 SW21G30   30.16F WCI  25
BUFFALO        MOSUNNY   34  23  64 SW22G35   30.17F WCI  22
DUNKIRK        SUNNY     33  24  69 W14G22    30.21F WCI  23
JAMESTOWN      SUNNY     34  18  51 W9        30.15S WCI  26
WELLSVILLE     SUNNY     37  17  44 W14       30.12F WCI  28
ROCHESTER      PTSUNNY   37  25  61 SW20G25   30.17S WCI  27
PENN YAN       PTSUNNY   40  19  43 W12       30.15F WCI  33
$$

             KEY
       WCI = WIND CHILL INDEX
       VSB = VISIBILITY
       HX  = HEAT INDEX
$$



USA.gov is the U.S. government's official web portal to all federal, state and local government web resources and services.